Torna al catalogo

CZ-6A DEB

AttivoSSO
NORAD 54390·DEBRIS·🇨🇳 China

Lanciato Nov 11, 2022 da Taiyuan Satellite Launch Center

Loading…

Prossimi Passaggi (prossime 24 ore)

TLE

AggiornatoSource: Space-Track

Epoca: Sep 14, 2026, 03:25 UTC

1 54390U 22151DN  26257.14303883  .00000413  00000-0  32498-3 0  9991
2 54390  98.9773 231.2078 0125568 193.9415 165.8268 13.93678058194570

Traccia CZ-6A DEB in tempo reale con AllMySat

Download on the App Store